EW9394 Weather Reports


time (UTC)temp
C
wind
direction
speed
KPH
gust
KPH
rain 1hr
cm
rain 24hr
cm
rain mn
cm
humidity
%
barometer
mb
20260906202938 37 221 1.6 1.6 0.00 0.00 0.00 44 1013.3
20260906202436 37 157 3.2 3.2 0.00 0.00 0.00 44 1013.3
20260906201931 37 150 6.4 8.0 0.00 0.00 0.00 44 1013.5
20260906201425 37 161 3.2 3.2 0.00 0.00 0.00 43 1013.6
20260906200921 37 131 1.6 1.6 0.00 0.00 0.00 43 1013.4
20260906200412 37 158 3.2 3.2 0.00 0.00 0.00 45 1013.4
20260906195911 36 175 1.6 3.2 0.00 0.00 0.00 45 1013.3
20260906195408 37 129 0.0 0.0 0.00 0.00 0.00 45 1013.5
20260906194904 37 192 3.2 3.2 0.00 0.00 0.00 44 1013.7
20260906194359 37 173 0.0 1.6 0.00 0.00 0.00 44 1013.5
20260906193854 37 159 4.8 9.7 0.00 0.00 0.00 45 1013.7
20260906193349 37 195 1.6 1.6 0.00 0.00 0.00 46 1013.7
20260906192845 37 196 3.2 3.2 0.00 0.00 0.00 46 1013.6
20260906192339 37 151 4.8 8.0 0.00 0.00 0.00 45 1013.8
20260906191839 37 194 6.4 12.9 0.00 0.00 0.00 46 1014.0
20260906191338 37 345 4.8 8.0 0.00 0.00 0.00 46 1013.9
20260906190833 37 168 4.8 4.8 0.00 0.00 0.00 47 1014.1
20260906190332 37 191 8.0 12.9 0.00 0.00 0.00 48 1014.3
20260906185827 36 120 0.0 0.0 0.00 0.00 0.00 49 1014.3
20260906185326 36 48 0.0 1.6 0.00 0.00 0.00 47 1014.4
20260906184821 36 48 3.2 8.0 0.00 0.00 0.00 48 1014.5
20260906184316 37 213 1.6 3.2 0.00 0.00 0.00 47 1014.3
20260906183811 36 182 3.2 4.8 0.00 0.00 0.00 48 1014.5
20260906183308 36 154 9.7 12.9 0.00 0.00 0.00 48 1014.5
20260906182807 36 123 3.2 3.2 0.00 0.00 0.00 50 1014.5
20260906182306 36 209 3.2 3.2 0.00 0.00 0.00 50 1014.6
20260906181758 35 63 3.2 4.8 0.00 0.00 0.00 51 1014.8
20260906181254 36 188 4.8 4.8 0.00 0.00 0.00 52 1015.0
20260906180754 36 136 1.6 3.2 0.00 0.00 0.00 51 1015.0
20260906180249 36 206 1.6 3.2 0.00 0.00 0.00 52 1014.9
20260906175747 35 128 0.0 1.6 0.00 0.00 0.00 53 1015.0
20260906175243 35 111 1.6 1.6 0.00 0.00 0.00 54 1015.3
20260906174741 36 103 1.6 1.6 0.00 0.00 0.00 52 1015.2
20260906174240 36 100 0.0 1.6 0.00 0.00 0.00 52 1015.4
20260906173736 35 199 0.0 1.6 0.00 0.00 0.00 54 1015.4
20260906173232 35 207 0.0 0.0 0.00 0.00 0.00 54 1015.5
20260906172731 35 173 4.8 9.7 0.00 0.00 0.00 55 1015.7
20260906172227 35 165 4.8 8.0 0.00 0.00 0.00 57 1015.4
20260906171726 34 203 6.4 9.7 0.00 0.00 0.00 56 1015.6
20260906171222 34 63 6.4 8.0 0.00 0.00 0.00 56 1015.8
20260906170712 35 190 6.4 9.7 0.00 0.00 0.00 56 1015.9
20260906170212 34 200 3.2 4.8 0.00 0.00 0.00 56 1015.8
20260906165709 34 160 3.2 8.0 0.00 0.00 0.00 56 1015.8
20260906165204 34 106 6.4 8.0 0.00 0.00 0.00 56 1015.8
20260906164702 34 118 1.6 1.6 0.00 0.00 0.00 58 1015.9
20260906164158 33 170 4.8 8.0 0.00 0.00 0.00 58 1016.1
20260906163654 33 115 3.2 3.2 0.00 0.00 0.00 58 1016.2
20260906163150 33 84 3.2 4.8 0.00 0.00 0.00 59 1016.0
20260906162647 34 172 3.2 3.2 0.00 0.00 0.00 56 1016.0
20260906162146 34 72 1.6 1.6 0.00 0.00 0.00 59 1015.9
20260906161641 33 151 0.0 1.6 0.00 0.00 0.00 61 1016.0
20260906161140 33 175 0.0 1.6 0.00 0.00 0.00 62 1015.9
20260906160638 32 190 6.4 9.7 0.00 0.00 0.00 65 1015.9
20260906160133 33 100 1.6 3.2 0.00 0.00 0.00 64 1015.9
20260906155630 32 113 1.6 1.6 0.00 0.00 0.00 66 1016.2
20260906155126 32 187 0.0 1.6 0.00 0.00 0.00 66 1016.0
20260906154621 32 176 0.0 0.0 0.00 0.00 0.00 68 1016.0
20260906154120 32 163 0.0 0.0 0.00 0.00 0.00 68 1016.0
20260906153619 32 198 1.6 1.6 0.00 0.00 0.00 69 1016.0
20260906153115 32 162 1.6 1.6 0.00 0.00 0.00 70 1015.6
20260906152614 31 179 1.6 1.6 0.00 0.00 0.00 70 1015.7
20260906152109 31 116 1.6 1.6 0.00 0.00 0.00 71 1015.7
20260906151604 31 181 1.6 3.2 0.00 0.00 0.00 73 1015.8
20260906151100 31 85 0.0 1.6 0.00 0.00 0.00 75 1015.9
20260906150555 31 187 3.2 3.2 0.00 0.00 0.00 76 1015.7
20260906150050 31 150 1.6 1.6 0.00 0.00 0.00 75 1015.8
20260906145549 30 200 0.0 0.0 0.00 0.00 0.00 77 1015.9
20260906145044 30 127 1.6 3.2 0.00 0.00 0.00 76 1015.6
20260906144538 30 41 1.6 1.6 0.00 0.00 0.00 77 1015.7
20260906144034 29 186 0.0 1.6 0.00 0.00 0.00 78 1015.6
20260906143528 30 192 0.0 0.0 0.00 0.00 0.00 78 1015.8
20260906143025 30 189 0.0 0.0 0.00 0.00 0.00 77 1015.7
20260906142519 29 191 0.0 0.0 0.00 0.00 0.00 79 1015.8
20260906142015 29 155 4.8 4.8 0.00 0.00 0.00 79 1015.9
20260906141513 28 193 1.6 1.6 0.00 0.00 0.00 80 1015.8
20260906141009 28 120 1.6 3.2 0.00 0.00 0.00 81 1015.8
20260906140503 28 177 1.6 1.6 0.00 0.00 0.00 83 1015.9
20260906140002 28 134 1.6 3.2 0.00 0.00 0.00 83 1015.8
20260906135500 27 180 1.6 1.6 0.00 0.00 0.00 83 1015.7
20260906134955 27 173 1.6 1.6 0.00 0.00 0.00 85 1015.7
20260906134451 26 191 1.6 1.6 0.00 0.00 0.00 87 1015.4
20260906133951 26 112 0.0 1.6 0.00 0.00 0.00 88 1015.6
20260906133446 26 187 0.0 1.6 0.00 0.00 0.00 88 1015.7
20260906132942 26 198 0.0 0.0 0.00 0.00 0.00 88 1015.6
20260906132437 26 185 1.6 1.6 0.00 0.00 0.00 88 1015.5
20260906131932 26 172 0.0 0.0 0.00 0.00 0.00 89 1015.5
20260906131428 26 191 0.0 0.0 0.00 0.00 0.00 90 1015.6
20260906130923 25 197 0.0 0.0 0.00 0.00 0.00 91 1015.6
20260906130423 25 193 0.0 1.6 0.00 0.00 0.00 91 1015.3
20260906125923 25 189 0.0 1.6 0.00 0.00 0.00 92 1015.7
20260906125420 25 199 0.0 0.0 0.00 0.00 0.00 93 1015.5
20260906124914 25 191 0.0 1.6 0.00 0.00 0.00 93 1015.3
20260906124410 25 204 0.0 0.0 0.00 0.00 0.00 93 1015.2
20260906123910 25 203 0.0 0.0 0.00 0.00 0.00 93 1015.2
20260906123404 25 202 0.0 0.0 0.00 0.00 0.00 93 1015.0
20260906122904 25 205 0.0 0.0 0.00 0.00 0.00 93 1015.2
20260906122359 25 207 0.0 0.0 0.00 0.00 0.00 93 1015.2
20260906121855 25 208 0.0 0.0 0.00 0.00 0.00 93 1015.1
20260906121351 25 205 0.0 0.0 0.00 0.00 0.00 93 1015.2
20260906120847 25 184 0.0 1.6 0.00 0.00 0.00 93 1014.8
20260906120343 25 191 3.2 3.2 0.00 0.00 0.00 93 1015.0
20260906115839 25 201 0.0 0.0 0.00 0.00 0.00 93 1015.0
20260906115334 25 200 0.0 0.0 0.00 0.00 0.00 93 1015.1
20260906114833 25 202 1.6 1.6 0.00 0.00 0.00 93 1014.9
20260906114329 25 194 1.6 1.6 0.00 0.00 0.00 93 1014.9
20260906113824 25 195 0.0 0.0 0.00 0.00 0.00 93 1014.8
20260906113323 25 173 1.6 1.6 0.00 0.00 0.00 93 1014.8
20260906112818 25 198 0.0 0.0 0.00 0.00 0.00 93 1014.9
20260906112315 25 202 0.0 0.0 0.00 0.00 0.00 93 1014.7
20260906111814 25 204 0.0 0.0 0.00 0.00 0.00 93 1014.9
20260906111308 25 206 0.0 0.0 0.00 0.00 0.00 93 1014.8
20260906110803 25 204 0.0 0.0 0.00 0.00 0.00 92 1014.7
20260906110259 25 201 0.0 0.0 0.00 0.00 0.00 92 1014.7
20260906105758 25 192 1.6 1.6 0.00 0.00 0.00 92 1014.6
20260906105254 25 198 0.0 0.0 0.00 0.00 0.00 92 1014.6
20260906104749 25 202 0.0 0.0 0.00 0.00 0.00 92 1014.5
20260906104248 25 184 0.0 0.0 0.00 0.00 0.00 92 1014.6
20260906103746 25 193 0.0 0.0 0.00 0.00 0.00 91 1014.6
20260906103245 25 178 0.0 0.0 0.00 0.00 0.00 91 1014.4
20260906102741 25 193 0.0 0.0 0.00 0.00 0.00 91 1014.6
20260906102234 25 192 0.0 0.0 0.00 0.00 0.00 91 1014.5
20260906101730 25 200 0.0 0.0 0.00 0.00 0.00 90 1014.1
20260906101225 25 200 0.0 0.0 0.00 0.00 0.00 90 1014.3
20260906100720 25 200 0.0 0.0 0.00 0.00 0.00 90 1014.5
20260906100220 26 196 0.0 0.0 0.00 0.00 0.00 89 1014.3
20260906095721 26 191 0.0 0.0 0.00 0.00 0.00 89 1014.3
20260906095216 26 199 0.0 0.0 0.00 0.00 0.00 89 1014.1
20260906094714 26 192 0.0 0.0 0.00 0.00 0.00 88 1014.0
20260906094210 26 194 0.0 0.0 0.00 0.00 0.00 88 1013.9
20260906093707 26 195 0.0 0.0 0.00 0.00 0.00 88 1013.9
20260906093201 26 204 0.0 0.0 0.00 0.00 0.00 88 1013.9
20260906092656 26 207 0.0 1.6 0.00 0.00 0.00 88 1013.9
20260906092150 26 199 0.0 0.0 0.00 0.00 0.00 88 1013.5
20260906091647 26 201 0.0 0.0 0.00 0.00 0.00 87 1013.8
20260906091143 26 191 0.0 0.0 0.00 0.00 0.00 87 1013.8
20260906090638 26 192 0.0 0.0 0.00 0.00 0.00 87 1013.6
20260906090132 26 198 0.0 0.0 0.00 0.00 0.00 87 1013.6
20260906085631 26 201 0.0 0.0 0.00 0.00 0.00 86 1013.6
20260906085126 26 185 1.6 3.2 0.00 0.00 0.00 86 1013.5
20260906084626 26 208 0.0 1.6 0.00 0.00 0.00 86 1013.6
20260906084124 26 196 1.6 3.2 0.00 0.00 0.00 86 1013.6
20260906083620 26 203 3.2 3.2 0.00 0.00 0.00 86 1013.6
20260906083115 26 203 1.6 3.2 0.00 0.00 0.00 85 1013.6
20260906082610 26 202 0.0 1.6 0.00 0.00 0.00 85 1013.4
20260906082106 26 211 3.2 3.2 0.00 0.00 0.00 85 1013.8
20260906081602 26 172 1.6 1.6 0.00 0.00 0.00 85 1013.8
20260906081057 26 179 3.2 3.2 0.00 0.00 0.00 85 1013.9
20260906080553 26 194 1.6 1.6 0.00 0.00 0.00 85 1013.8
20260906080049 27 201 0.0 0.0 0.00 0.00 0.00 85 1014.1
20260906075543 27 194 1.6 1.6 0.00 0.00 0.00 84 1013.9
20260906075038 27 184 1.6 1.6 0.00 0.00 0.00 84 1013.8
20260906074533 27 201 0.0 1.6 0.00 0.00 0.00 84 1013.8
20260906074031 27 196 1.6 1.6 0.00 0.00 0.00 83 1013.8
20260906073526 27 195 1.6 1.6 0.00 0.00 0.00 83 1014.0
20260906073023 27 204 0.0 1.6 0.00 0.00 0.00 83 1013.9
20260906072517 27 169 1.6 1.6 0.00 0.00 0.00 83 1013.7
20260906072014 27 208 0.0 0.0 0.00 0.00 0.00 82 1014.0
20260906071509 27 195 0.0 0.0 0.00 0.00 0.00 82 1013.9
20260906071004 27 197 3.2 3.2 0.00 0.00 0.00 82 1013.8
20260906070500 27 179 1.6 1.6 0.00 0.00 0.00 82 1014.0
20260906065956 27 206 0.0 0.0 0.00 0.00 0.00 82 1013.8
20260906065455 27 199 0.0 0.0 0.00 0.00 0.00 82 1013.9
20260906064951 27 203 0.0 0.0 0.00 0.00 0.00 81 1013.9
20260906064447 27 179 3.2 3.2 0.00 0.00 0.00 81 1013.9
20260906063942 27 197 1.6 1.6 0.00 0.00 0.00 81 1013.8
20260906063438 27 189 3.2 4.8 0.00 0.00 0.00 81 1014.1
20260906062937 27 194 0.0 1.6 0.00 0.00 0.00 81 1014.0
20260906062433 27 196 3.2 3.2 0.00 0.00 0.00 80 1014.3
20260906061927 27 215 1.6 3.2 0.00 0.00 0.00 80 1013.9
20260906061424 27 183 3.2 3.2 0.00 0.00 0.00 80 1014.0
20260906060918 27 178 1.6 3.2 0.00 0.00 0.00 79 1014.4
20260906060415 27 206 3.2 4.8 0.00 0.00 0.00 78 1014.3
20260906055911 27 203 0.0 1.6 0.00 0.00 0.00 78 1014.3
20260906055407 28 209 1.6 1.6 0.00 0.00 0.00 77 1014.3
20260906054902 28 154 1.6 1.6 0.00 0.00 0.00 77 1014.5
20260906054356 28 181 1.6 1.6 0.00 0.00 0.00 77 1014.0
20260906053853 28 201 4.8 8.0 0.00 0.00 0.00 76 1014.3
20260906053348 28 192 1.6 3.2 0.00 0.00 0.00 76 1014.1
20260906052844 28 157 3.2 3.2 0.00 0.00 0.00 76 1014.0
20260906052340 28 191 0.0 1.6 0.00 0.00 0.00 76 1014.0
20260906051837 28 193 3.2 4.8 0.00 0.00 0.00 75 1013.9
20260906051336 28 206 1.6 3.2 0.00 0.00 0.00 75 1014.1
20260906050832 28 197 1.6 3.2 0.00 0.00 0.00 74 1014.4
20260906050327 28 177 1.6 3.2 0.00 0.00 0.00 74 1014.3
20260906045826 28 209 3.2 3.2 0.00 0.00 0.00 73 1013.8
20260906045320 28 178 6.4 8.0 0.00 0.00 0.00 73 1013.6
20260906044817 28 201 3.2 3.2 0.00 0.00 0.00 73 1013.8
20260906044317 28 183 1.6 1.6 0.00 0.00 0.00 73 1013.8
20260906043813 28 217 1.6 3.2 0.00 0.00 0.00 73 1013.8
20260906043308 28 175 3.2 3.2 0.00 0.00 0.00 73 1013.9
20260906042803 28 198 1.6 1.6 0.00 0.00 0.00 72 1014.0
20260906042306 29 201 4.8 8.0 0.00 0.00 0.00 72 1014.1
20260906041757 29 192 3.2 4.8 0.00 0.00 0.00 72 1013.9
20260906041252 29 194 1.6 3.2 0.00 0.00 0.00 72 1014.3
20260906040748 29 170 0.0 0.0 0.00 0.00 0.00 72 1014.0
20260906040243 29 194 0.0 1.6 0.00 0.00 0.00 72 1014.3
20260906035738 29 188 1.6 3.2 0.00 0.00 0.00 71 1014.1
20260906035234 29 203 0.0 0.0 0.00 0.00 0.00 71 1014.1
20260906034734 29 171 3.2 4.8 0.00 0.00 0.00 71 1013.9
20260906034229 30 197 1.6 1.6 0.00 0.00 0.00 71 1013.9
20260906033725 30 199 0.0 0.0 0.00 0.00 0.00 71 1013.9
20260906033224 30 161 1.6 3.2 0.00 0.00 0.00 70 1014.0
20260906032721 30 196 0.0 0.0 0.00 0.00 0.00 71 1014.1
20260906032221 30 198 1.6 1.6 0.00 0.00 0.00 70 1013.9
20260906031716 30 197 1.6 1.6 0.00 0.00 0.00 70 1014.1
20260906031212 30 162 3.2 3.2 0.00 0.00 0.00 70 1013.8
20260906030711 30 197 1.6 3.2 0.00 0.00 0.00 70 1013.6
20260906030206 30 191 4.8 4.8 0.00 0.00 0.00 69 1014.0
20260906025706 30 167 6.4 8.0 0.00 0.00 0.00 69 1014.0
20260906025200 30 199 3.2 4.8 0.00 0.00 0.00 69 1013.9
20260906024654 30 202 3.2 3.2 0.00 0.00 0.00 69 1014.0
20260906024153 30 198 1.6 1.6 0.00 0.00 0.00 69 1014.0
20260906023650 30 210 1.6 1.6 0.00 0.00 0.00 69 1013.8
20260906023150 30 192 1.6 1.6 0.00 0.00 0.00 69 1013.8
20260906022644 30 187 1.6 1.6 0.00 0.00 0.00 69 1013.8
20260906022140 30 187 1.6 3.2 0.00 0.00 0.00 69 1013.5
20260906021636 30 209 4.8 4.8 0.00 0.00 0.00 69 1013.5
20260906021134 30 155 3.2 3.2 0.00 0.00 0.00 68 1013.4
20260906020629 30 200 4.8 8.0 0.00 0.00 0.00 68 1013.3
20260906020124 30 178 1.6 1.6 0.00 0.00 0.00 67 1013.1
20260906015618 30 194 1.6 3.2 0.00 0.00 0.00 67 1013.1
20260906015116 30 167 3.2 4.8 0.00 0.00 0.00 66 1013.2
20260906014612 30 168 3.2 8.0 0.00 0.00 0.00 66 1013.2
20260906014108 30 203 3.2 4.8 0.00 0.00 0.00 66 1013.1
20260906013603 30 194 1.6 3.2 0.00 0.00 0.00 65 1012.9
20260906013058 31 207 3.2 4.8 0.00 0.00 0.00 65 1012.7
20260906012553 31 181 3.2 4.8 0.00 0.00 0.00 64 1012.7
20260906012053 31 108 3.2 4.8 0.00 0.00 0.00 64 1013.0
20260906011549 31 124 1.6 3.2 0.00 0.00 0.00 63 1012.6
20260906011049 31 195 1.6 3.2 0.00 0.00 0.00 63 1012.5
20260906010544 31 207 3.2 3.2 0.00 0.00 0.00 62 1012.5
20260906010041 31 153 1.6 3.2 0.00 0.00 0.00 62 1012.6
20260906005540 31 201 9.7 12.9 0.00 0.00 0.00 62 1012.7
20260906005039 32 196 3.2 3.2 0.00 0.00 0.00 61 1012.7
20260906004538 32 169 4.8 4.8 0.00 0.00 0.00 58 1012.6
20260906004033 33 128 9.7 12.9 0.00 0.00 0.00 56 1012.3
20260906003528 33 149 6.4 11.3 0.00 0.00 0.00 54 1012.4
20260906003024 33 93 4.8 4.8 0.00 0.00 0.00 54 1012.4
20260906002519 34 190 4.8 4.8 0.00 0.00 0.00 53 1012.3
20260906002014 34 201 4.8 9.7 0.00 0.00 0.00 53 1012.3
20260906001510 35 162 4.8 8.0 0.00 0.00 0.00 52 1012.2
20260906001004 35 178 4.8 8.0 0.00 0.00 0.00 51 1012.1
20260906000500 36 110 8.0 11.3 0.00 0.00 0.00 47 1012.1
20260905235954 36 141 1.6 3.2 0.00 0.00 0.00 46 1012.1
20260905235454 36 175 4.8 4.8 0.00 0.00 0.00 46 1012.0
20260905234949 36 199 1.6 1.6 0.00 0.00 0.00 45 1011.9
20260905234444 36 142 1.6 3.2 0.00 0.00 0.00 45 1011.6
20260905233938 36 196 1.6 1.6 0.00 0.00 0.00 45 1011.8
20260905233434 36 199 1.6 1.6 0.00 0.00 0.00 45 1011.6
20260905232932 36 189 1.6 1.6 0.00 0.00 0.00 45 1011.7
20260905232429 36 49 3.2 4.8 0.00 0.00 0.00 45 1011.5
20260905231924 36 85 1.6 1.6 0.00 0.00 0.00 45 1011.7
20260905231420 36 235 1.6 3.2 0.00 0.00 0.00 45 1011.9
20260905230916 36 149 0.0 1.6 0.00 0.00 0.00 45 1011.7
20260905230415 37 241 6.4 8.0 0.00 0.00 0.00 44 1012.0
20260905225913 37 161 3.2 3.2 0.00 0.00 0.00 43 1011.9
20260905225409 37 216 3.2 3.2 0.00 0.00 0.00 42 1011.9
20260905224903 37 139 3.2 4.8 0.00 0.00 0.00 41 1011.8
20260905224359 37 181 0.0 0.0 0.00 0.00 0.00 43 1011.9
20260905223853 37 140 4.8 4.8 0.00 0.00 0.00 43 1011.7
20260905223351 37 187 3.2 3.2 0.00 0.00 0.00 43 1011.8
20260905222846 37 117 1.6 1.6 0.00 0.00 0.00 43 1011.7
20260905222344 37 152 6.4 8.0 0.00 0.00 0.00 42 1011.6
20260905221841 37 193 1.6 1.6 0.00 0.00 0.00 41 1011.8
20260905221337 37 150 6.4 9.7 0.00 0.00 0.00 41 1011.7
20260905220833 38 123 0.0 0.0 0.00 0.00 0.00 40 1011.8
20260905220329 38 149 0.0 1.6 0.00 0.00 0.00 42 1011.9
20260905215828 38 184 1.6 3.2 0.00 0.00 0.00 42 1012.0
20260905215324 38 151 0.0 0.0 0.00 0.00 0.00 42 1012.1
20260905214821 38 131 1.6 3.2 0.00 0.00 0.00 41 1012.0
20260905214315 38 80 0.0 0.0 0.00 0.00 0.00 41 1012.0
20260905213810 37 322 4.8 4.8 0.00 0.00 0.00 41 1012.1
20260905213306 37 119 4.8 4.8 0.00 0.00 0.00 41 1012.4
20260905212801 37 66 1.6 1.6 0.00 0.00 0.00 41 1012.1
20260905212300 37 148 0.0 1.6 0.00 0.00 0.00 41 1012.1
20260905211755 38 195 0.0 1.6 0.00 0.00 0.00 40 1012.2
20260905211250 38 141 1.6 1.6 0.00 0.00 0.00 40 1012.4
20260905210747 37 112 4.8 4.8 0.00 0.00 0.00 41 1012.6
20260905210246 38 209 0.0 0.0 0.00 0.00 0.00 40 1012.5
20260905205745 37 261 4.8 4.8 0.00 0.00 0.00 40 1012.6
20260905205240 37 211 1.6 1.6 0.00 0.00 0.00 41 1012.7
20260905204739 37 163 3.2 4.8 0.00 0.00 0.00 41 1012.7
20260905204236 37 209 6.4 8.0 0.00 0.00 0.00 41 1012.9
20260905203735 38 180 1.6 1.6 0.00 0.00 0.00 41 1012.9